GFSFLT2_925_spd_000.txt.gz
Wind_Speed
30 30 32 32 30 29 29 30 32 29 37 41 42 42 43 45 43 42 40 40 39 40 41 42 44 44 46
32 33 32 32 32 31 30 28 29 32 35 38 41 42 40 38 37 38 38 40 42 41 40 40 38 40 43
30 34 35 29 30 29 30 31 30 30 34 35 36 37 36 38 42 41 40 40 39 40 40 39 39 39 39
27 29 24 23 28 27 29 29 32 30 33 35 35 36 37 38 38 39 40 39 39 40 41 40 41 41 41
19 16 26 27 24 29 29 32 32 31 33 32 30 31 35 36 37 36 35 35 36 37 37 38 39 40 41
25 23 23 27 31 29 28 26 16 26 23 34 31 33 33 33 34 34 36 38 39 38 38 39 40 41 40
28 26 28 30 29 29 29 27 28 35 30 31 31 33 34 35 35 37 37 38 38 39 38 38 39 39 40
27 30 29 33 33 30 31 32 32 32 26 14 32 33 35 35 37 38 36 35 35 35 35 35 36 37 39
22 30 33 30 28 29 24 23 15 27 29 25 27 31 35 37 34 28 31 35 36 35 35 36 37 39 42
30 31 29 30 26 25 26 21 20 13 23 21 28 23 9 27 25 33 30 31 33 34 34 35 36 36 33
25 27 26 26 28 27 27 27 26 24 36 31 22 27 15 17 28 27 30 31 31 33 32 31 32 34 34
24 24 25 28 30 32 34 33 32 34 41 38 25 26 22 13 14 25 33 33 27 29 28 30 31 33 37
22 25 26 30 33 30 31 31 32 32 31 30 30 31 25 19 12 27 25 25 31 27 28 28 29 29 28
24 27 28 27 28 28 28 30 28 29 27 25 26 27 26 25 21 23 27 8 27 32 29 27 27 28 29
24 26 27 27 28 27 26 26 20 22 28 30 29 26 25 26 15 19 24 25 27 28 26 21 22 24 24
26 24 25 26 26 27 24 21 20 22 23 25 28 28 26 13 11 18 21 24 34 30 27 17 13 26 23
25 25 25 26 25 24 23 21 20 21 21 22 20 15 10 10 12 21 24 28 30 28 29 24 12 27 29

GFSFLT2_925_spd_003.txt.gz
Wind_Speed
32 32 32 30 30 28 27 28 31 34 38 42 42 42 41 44 45 44 43 43 42 41 41 40 40 40 40
33 32 32 33 32 31 28 31 33 33 35 35 39 41 40 41 41 40 41 39 41 42 41 41 41 41 41
32 33 31 29 27 31 32 33 31 31 33 34 35 36 38 39 40 41 41 40 40 40 40 39 40 40 41
28 24 26 30 29 30 29 29 30 31 33 33 34 36 38 39 41 40 40 40 39 39 39 40 40 40 42
22 24 26 27 25 28 29 32 32 31 31 30 32 35 37 38 37 37 36 36 37 37 38 38 39 40 40
24 23 28 26 29 27 28 27 16 26 23 36 33 35 35 35 36 36 38 39 39 39 38 39 39 40 39
29 27 28 30 27 30 29 27 28 35 32 31 33 33 33 36 37 37 38 39 38 38 38 39 39 40 40
27 29 27 30 31 29 30 31 31 32 28 15 34 32 35 36 39 37 34 34 34 34 35 36 38 39 40
22 26 32 27 24 25 23 22 16 27 30 24 26 32 35 38 31 23 30 34 35 35 35 36 37 39 42
28 25 23 23 23 21 23 20 20 13 18 21 27 24 10 17 21 33 29 29 30 33 35 37 38 37 35
23 24 23 23 23 23 23 24 24 23 35 29 23 27 16 21 31 30 31 29 30 31 31 31 33 35 36
23 24 25 26 27 30 31 29 27 32 39 35 25 27 24 16 14 26 35 33 27 28 29 31 32 34 37
23 24 24 28 31 28 29 28 28 28 29 28 28 30 27 22 15 29 28 26 31 26 32 30 31 31 28
23 26 27 26 26 26 26 28 26 28 24 23 26 26 26 26 23 25 27 10 34 34 32 31 29 30 33
24 25 26 25 27 26 25 26 20 22 26 30 26 25 25 26 21 23 25 27 30 34 32 27 28 27 28
24 23 24 24 25 27 23 21 20 22 23 26 28 26 24 15 13 18 23 25 32 33 30 22 20 29 33
24 25 24 24 25 23 23 21 21 21 22 23 21 16 11 11 20 19 19 29 27 29 30 28 15 27 28

GFSFLT2_925_spd_006.txt.gz
Wind_Speed
29 29 31 29 30 27 28 29 33 37 37 37 36 37 38 39 39 40 40 42 42 42 43 44 44 43 43
31 31 31 30 29 29 31 34 33 33 34 35 36 36 36 37 38 40 41 41 41 42 42 42 42 42 42
31 32 31 26 31 33 31 30 28 30 32 33 36 37 36 36 38 41 42 41 42 42 42 41 42 42 43
29 29 25 31 32 29 28 29 29 31 34 34 34 34 33 37 41 41 39 39 40 41 41 41 40 41 41
21 25 28 27 26 28 27 30 33 30 32 30 31 36 37 36 36 36 35 37 38 39 39 40 40 40 41
25 25 30 28 29 28 28 26 14 28 26 37 32 36 34 34 35 37 38 39 40 39 39 39 40 42 42
29 29 28 29 31 29 29 28 27 35 33 34 32 34 34 36 37 37 38 38 37 37 37 38 40 42 43
27 30 30 29 32 32 30 32 31 31 28 15 32 31 33 37 38 34 32 31 32 35 36 37 38 40 41
28 27 32 31 26 26 24 22 16 27 29 26 26 32 35 37 25 20 27 38 34 33 34 35 37 38 41
28 26 23 23 22 20 22 20 20 14 17 20 27 23 8 21 21 37 31 30 31 32 34 34 35 36 35
24 23 22 21 21 21 22 23 24 23 34 27 23 26 17 22 30 31 33 30 32 34 32 32 32 33 33
22 23 23 24 24 27 29 29 28 32 39 34 26 26 24 15 15 30 34 34 31 32 33 34 35 37 37
22 23 24 27 29 27 28 27 28 29 30 30 29 30 27 25 21 31 31 34 33 29 35 34 34 35 34
21 25 26 26 26 25 26 26 26 29 26 25 25 28 29 29 28 29 32 15 34 34 36 39 34 31 29
23 24 24 25 26 25 24 25 22 23 27 28 26 27 28 31 26 28 28 30 32 33 36 34 32 29 25
23 22 24 24 25 27 23 22 21 23 24 27 28 27 24 22 20 21 28 27 33 33 31 24 25 32 32
23 24 24 24 25 24 24 22 22 22 24 25 24 19 12 13 30 20 22 30 31 27 25 25 24 31 31

GFSFLT2_925_spd_009.txt.gz
Wind_Speed
24 24 27 28 29 27 26 30 34 35 36 34 35 36 36 37 37 38 39 40 40 40 40 41 40 40 40
25 26 26 29 27 28 26 31 33 30 31 35 36 36 37 37 38 38 38 39 39 40 41 42 42 42 41
27 27 28 27 23 29 32 25 25 30 33 35 37 38 36 35 36 38 38 40 41 42 42 42 42 42 42
27 29 26 24 28 26 23 25 27 29 35 35 33 35 33 35 39 39 38 38 38 38 39 39 39 40 40
26 21 25 27 22 24 25 28 32 26 36 31 26 36 37 36 36 35 34 35 36 38 39 40 40 40 40
23 24 26 25 25 26 29 22 15 27 21 37 32 36 35 34 34 36 36 36 36 37 37 37 38 39 41
27 23 26 28 30 29 26 27 27 35 32 34 32 33 34 36 33 36 39 36 34 33 32 33 35 37 38
24 27 29 32 28 28 30 30 32 31 25 19 33 33 33 34 40 34 29 27 27 32 37 36 35 36 37
27 31 32 31 28 26 24 22 17 27 27 26 26 31 36 38 27 22 24 35 34 33 33 34 34 35 38
29 28 25 25 24 23 22 20 21 19 23 19 26 22 7 23 20 35 30 33 33 34 32 36 36 35 32
25 24 24 23 23 25 26 25 25 27 36 29 25 27 18 23 29 32 35 35 33 37 36 35 34 34 35
22 23 24 26 26 27 31 32 31 34 40 35 27 27 26 20 15 33 37 36 33 35 36 35 35 38 38
21 24 25 28 32 30 29 29 31 32 33 33 31 31 28 26 23 32 31 39 38 33 33 33 36 37 35
22 25 27 27 27 26 27 29 27 31 30 27 28 28 28 29 29 31 34 20 35 35 34 37 36 34 32
22 25 25 25 27 27 26 26 23 26 29 31 30 30 31 32 28 30 29 30 32 34 34 33 34 31 28
25 24 24 25 27 28 26 23 23 25 26 29 30 28 27 24 23 24 27 28 32 33 33 23 29 34 33
24 25 25 26 26 25 25 24 24 24 27 28 25 20 13 14 32 17 22 30 31 31 28 26 23 34 33

GFSFLT2_925_spd_015.txt.gz
Wind_Speed
20 22 27 30 31 32 31 29 29 30 28 30 29 31 33 33 34 35 35 35 34 33 34 34 33 33 33
19 23 26 31 31 31 27 28 28 28 28 32 32 32 34 33 33 33 33 33 32 33 33 34 35 34 34
22 24 28 30 29 27 27 28 26 29 30 32 32 31 31 31 31 32 34 34 32 32 32 33 33 33 34
22 23 24 24 24 25 27 27 32 30 31 31 29 30 30 30 32 31 31 30 29 30 30 31 31 32 32
18 21 18 23 22 25 27 30 31 32 29 28 28 32 33 31 31 31 29 31 33 33 32 31 31 31 32
19 19 22 24 24 24 28 27 11 23 24 31 30 32 31 31 30 33 35 33 32 34 34 31 29 30 30
23 23 24 27 31 28 23 22 26 30 29 29 33 32 31 32 34 35 35 33 30 28 27 26 27 28 30
24 28 28 27 26 27 28 27 28 29 26 22 30 34 33 31 35 33 29 27 27 28 30 32 31 30 31
22 23 25 27 24 26 24 21 21 26 31 24 21 27 33 35 26 24 24 27 32 31 29 30 31 32 33
23 29 28 27 22 21 25 21 22 17 18 10 24 22 9 22 19 30 33 29 30 32 32 31 30 30 29
28 25 25 24 24 27 26 24 25 24 38 27 22 27 18 23 22 28 33 35 31 32 32 31 29 26 28
21 22 23 28 29 30 33 31 32 34 39 35 24 28 27 24 20 28 29 34 31 31 31 32 29 29 29
20 24 24 29 33 30 33 32 33 36 35 32 31 33 29 27 25 32 30 31 33 30 27 28 31 31 30
22 25 26 26 28 27 27 29 28 33 37 30 28 30 30 29 29 31 34 19 28 31 30 32 33 31 31
21 23 25 25 27 27 26 27 23 26 31 35 33 30 31 32 30 32 31 30 31 31 28 29 33 32 31
24 23 24 25 27 29 26 24 24 27 28 31 30 29 27 25 28 33 33 30 32 30 29 26 31 34 30
24 26 27 26 27 27 26 25 26 26 29 29 26 21 12 13 27 22 24 29 30 30 29 27 26 34 33

GFSFLT2_925_spd_018.txt.gz
Wind_Speed
18 24 25 28 30 29 26 27 28 24 24 26 26 28 28 28 30 31 32 32 32 33 33 32 33 33 34
19 24 26 29 30 27 28 26 27 25 26 27 29 29 28 28 28 29 30 31 32 32 34 34 35 35 35
19 24 27 29 28 27 25 26 26 27 28 28 28 26 26 28 28 29 30 31 31 32 32 32 32 33 34
22 22 24 26 22 23 25 26 29 29 31 25 27 26 30 29 29 30 30 30 30 29 30 31 32 33 33
20 18 20 21 21 23 25 28 29 31 26 24 28 29 36 30 30 30 29 28 31 33 33 33 33 32 33
19 16 21 22 24 22 26 24 9 23 21 33 28 30 34 32 31 30 32 34 32 31 31 31 31 31 32
22 23 24 27 30 28 23 21 26 30 31 33 26 30 33 31 31 32 34 32 30 29 29 28 28 28 28
23 27 26 25 23 24 27 28 28 28 26 21 25 29 31 32 34 33 31 28 26 27 29 30 32 32 32
21 21 22 25 26 25 24 21 22 25 25 23 18 27 29 33 27 24 24 25 30 33 33 31 30 30 33
21 27 29 26 21 19 23 21 20 16 9 8 20 20 9 19 20 26 34 33 32 31 31 32 31 30 29
28 29 28 25 24 26 25 23 23 23 34 26 20 25 18 19 19 27 32 36 35 33 31 31 30 28 28
21 21 22 29 29 29 30 29 29 33 38 32 21 25 26 25 20 28 28 32 33 33 31 32 28 26 29
18 23 25 30 31 31 31 31 32 34 33 31 31 32 29 28 26 33 31 29 33 32 30 31 32 28 27
22 25 25 26 27 27 27 27 26 33 31 28 27 29 31 30 29 32 35 19 28 31 31 32 32 30 30
21 22 22 24 26 26 25 26 22 27 32 35 31 28 31 32 30 33 31 30 30 30 28 31 33 31 31
22 21 22 24 26 27 24 23 24 26 28 31 31 30 28 26 28 34 34 30 33 30 29 26 31 31 30
22 25 25 25 25 26 25 24 24 26 28 29 27 22 12 14 29 23 26 28 31 29 27 26 28 36 31

GFSFLT2_925_spd_021.txt.gz
Wind_Speed
16 20 21 24 26 26 28 27 27 25 23 24 25 26 27 28 28 28 29 29 29 30 32 32 33 33 33
18 20 22 23 26 27 27 28 28 25 26 25 27 27 26 25 25 26 28 28 29 30 32 33 34 34 34
17 20 23 25 28 29 28 29 27 28 26 26 25 24 23 25 27 28 28 29 29 31 32 32 33 34 33
21 23 23 25 24 24 25 26 28 29 29 22 22 23 28 29 29 29 29 29 30 30 29 30 31 32 33
21 21 19 18 20 25 25 26 25 28 24 25 28 31 36 34 33 30 28 28 28 29 31 34 34 34 34
20 15 17 21 25 23 23 20 8 15 26 32 28 33 35 34 32 29 31 33 33 33 33 33 32 31 32
20 22 24 27 31 27 24 20 24 27 29 35 25 30 33 33 31 32 33 33 32 31 31 31 31 30 30
22 25 27 26 25 23 24 28 26 24 22 21 24 27 32 31 33 31 29 28 28 28 29 30 31 33 34
22 21 21 23 25 25 25 19 19 22 24 23 20 27 29 33 20 24 24 27 29 31 33 34 33 33 33
20 25 27 25 20 18 20 21 18 15 6 7 21 17 10 20 21 27 35 33 31 31 32 32 32 32 29
27 28 26 24 24 24 22 21 20 21 31 23 20 25 18 18 21 25 31 37 36 35 33 31 30 27 28
22 21 23 30 29 27 27 27 27 30 36 32 21 24 26 26 22 30 27 32 33 35 34 33 27 26 26
18 22 27 29 27 29 29 30 32 32 31 30 31 32 29 28 28 34 32 29 34 32 30 31 33 31 30
22 25 26 23 26 26 28 29 27 33 29 26 26 29 31 30 30 33 34 20 29 32 31 31 31 30 30
23 21 21 22 25 27 26 25 21 27 32 32 27 28 31 33 31 34 33 31 33 32 28 31 33 30 32
24 22 23 24 25 25 23 22 23 25 27 31 31 30 28 26 28 33 34 32 36 33 30 27 32 28 29
23 25 24 25 23 25 24 22 23 24 28 29 26 22 12 13 32 23 26 31 31 31 28 27 30 34 28

GFSFLT2_925_spd_024.txt.gz
Wind_Speed
13 17 20 21 22 22 23 25 26 24 22 22 22 22 23 25 25 26 28 28 28 29 30 30 30 31 31
18 19 19 21 22 24 25 26 26 26 23 23 23 24 23 23 24 25 27 28 30 31 31 31 31 32 33
16 18 20 21 24 24 25 28 27 26 25 24 20 21 21 22 25 27 29 29 29 30 31 32 33 33 34
19 21 21 21 22 23 23 24 27 28 28 18 19 22 25 28 29 29 28 28 28 29 31 32 33 33 33
20 19 19 19 19 23 25 24 25 26 25 23 26 32 34 31 29 26 25 25 27 29 30 32 34 33 34
19 16 17 21 23 23 22 18 9 20 18 29 27 32 33 31 28 27 29 30 30 31 32 33 34 34 34
19 20 22 25 28 29 23 19 20 28 30 29 23 31 33 32 31 32 31 30 29 29 29 30 31 31 31
20 23 25 24 22 21 22 25 25 27 26 16 24 27 32 33 34 28 25 27 29 30 29 30 31 32 32
20 18 17 21 23 24 25 20 18 18 21 20 23 26 27 33 19 23 24 26 29 33 34 33 32 32 33
17 22 24 23 19 17 19 21 16 12 8 7 24 18 10 23 24 28 34 33 30 31 32 33 32 31 29
24 25 24 22 23 23 20 19 19 20 28 20 17 23 18 18 23 24 30 35 36 36 33 31 28 26 27
20 22 23 27 27 26 24 24 24 28 34 28 18 22 24 25 22 27 27 32 34 37 34 33 28 27 27
17 22 25 27 26 26 26 28 29 30 28 25 27 30 27 28 27 35 30 32 33 33 30 31 35 32 32
20 24 25 24 26 24 27 29 28 32 28 23 21 25 31 31 30 33 34 19 30 32 30 32 32 30 32
22 23 23 23 26 26 26 27 19 25 32 31 26 25 29 34 31 34 31 31 32 33 28 32 32 29 32
23 22 23 24 25 27 23 21 22 24 26 31 30 28 25 25 27 31 31 31 35 31 29 27 33 28 31
21 23 23 24 21 25 25 23 23 24 27 29 26 20 10 12 32 21 27 30 32 34 30 28 29 35 29

GFSFLT2_925_spd_027.txt.gz
Wind_Speed
9 12 15 17 18 17 18 20 19 22 22 21 20 20 22 24 25 26 26 26 26 27 28 28 28 29 30
10 13 17 17 18 19 20 20 19 23 23 21 21 22 23 22 23 25 25 25 27 29 29 30 31 31 32
10 11 13 18 16 17 19 19 20 23 21 20 19 17 19 22 25 26 27 29 29 30 30 31 32 33 33
11 13 12 14 14 16 17 19 23 21 21 17 17 19 24 26 26 27 27 27 28 28 29 30 31 32 33
12 12 14 14 16 18 20 22 21 22 17 15 17 21 25 25 25 23 24 25 26 27 29 30 32 33 33
10 14 18 17 17 18 19 21 14 12 12 24 21 27 25 23 25 26 27 29 30 29 30 30 30 30 31
15 17 18 17 19 19 19 18 20 25 24 28 24 28 24 26 26 28 29 29 28 27 28 28 29 31 30
14 18 18 18 16 15 19 23 25 23 19 17 22 24 23 26 28 28 25 26 27 28 29 29 30 31 33
15 15 14 17 19 19 17 17 18 18 19 18 19 23 26 30 22 21 23 25 28 31 32 32 32 31 33
14 19 20 18 15 11 12 15 15 13 5 7 19 19 9 18 17 23 26 25 28 29 30 31 31 31 28
15 15 13 12 12 12 12 13 14 18 21 16 15 23 15 17 23 21 26 30 28 28 28 28 27 25 26
12 13 13 15 17 17 17 16 17 24 29 21 16 18 21 24 20 28 29 31 29 31 27 27 25 25 26
11 14 15 19 21 19 18 20 21 25 24 20 23 27 24 25 26 34 29 30 32 30 26 25 25 25 26
13 14 15 14 16 14 16 17 20 21 18 20 18 21 28 27 27 32 30 18 27 30 26 30 28 27 28
12 13 14 14 16 16 16 16 16 22 27 24 19 22 29 29 30 31 30 30 31 31 27 31 30 28 30
15 14 15 16 16 17 16 17 20 23 24 27 26 24 24 20 26 30 27 27 30 30 28 26 30 28 29
16 18 17 17 16 17 18 18 21 23 24 25 24 19 10 13 28 22 26 31 34 31 29 28 27 33 28

GFSFLT2_925_spd_030.txt.gz
Wind_Speed
4 5 8 11 17 16 16 18 20 19 21 22 23 25 24 24 25 25 26 27 27 27 28 28 28 29 28
10 13 13 15 13 14 16 17 21 21 23 24 24 24 24 26 24 23 24 26 26 27 28 29 30 30 30
7 8 9 13 15 14 16 18 20 20 23 24 23 23 22 23 23 25 26 28 29 30 31 31 31 31 31
11 11 12 11 11 14 16 16 21 21 24 23 21 20 23 24 25 26 27 27 27 27 27 27 28 29 31
12 12 13 12 12 15 18 19 20 21 22 18 18 21 22 23 24 25 24 23 24 26 26 27 29 31 33
12 13 14 14 14 16 18 20 16 18 17 24 23 26 25 24 26 26 27 28 28 29 29 29 30 32 33
15 15 16 15 14 16 18 17 20 23 24 26 25 28 24 26 27 28 29 29 29 28 28 28 30 31 32
13 15 15 15 15 16 18 21 23 23 20 22 24 25 25 28 28 30 30 29 29 28 28 29 30 31 32
13 15 15 15 17 18 18 17 18 22 20 20 20 21 26 31 30 23 24 25 27 28 30 31 31 31 33
12 13 14 14 13 13 14 15 15 13 4 7 16 18 8 17 14 21 24 22 26 28 30 30 30 29 28
13 12 11 10 10 11 13 16 16 19 19 17 15 20 16 19 21 23 26 25 26 28 28 28 27 26 26
11 11 11 11 12 13 15 18 20 26 29 22 17 18 20 22 22 25 25 30 29 28 24 25 24 25 26
11 12 13 14 17 15 15 16 20 24 27 25 26 26 24 25 28 32 27 32 33 28 22 23 25 24 25
13 14 14 15 15 14 16 16 19 21 17 21 24 24 26 27 29 31 30 21 29 32 29 29 28 26 28
12 14 15 16 17 15 15 16 17 21 23 21 20 22 28 31 32 30 29 29 29 31 30 31 32 31 31
13 14 15 16 17 16 16 16 18 20 23 25 23 23 26 24 27 32 29 30 30 28 28 28 30 30 30
13 14 15 16 17 16 16 17 19 21 24 25 25 22 12 13 22 20 28 31 32 30 29 27 28 32 29

GFSFLT2_925_spd_033.txt.gz
Wind_Speed
8 11 10 12 16 17 19 20 17 18 19 22 24 24 25 24 23 23 24 26 27 26 26 26 27 27 27
10 9 8 12 15 15 16 16 18 18 19 22 24 25 26 24 23 23 24 24 24 25 26 26 27 28 28
3 4 7 9 10 13 15 16 15 16 18 21 22 24 25 23 21 23 24 26 26 27 27 28 29 29 30
4 6 8 9 12 11 13 13 14 17 19 22 23 22 21 21 22 24 25 26 25 25 25 26 26 27 28
7 9 8 9 9 9 13 15 16 19 21 18 21 19 22 23 24 24 23 22 22 23 25 26 27 29 30
6 8 8 9 11 10 10 12 11 14 12 23 22 23 25 25 25 24 25 26 26 26 27 28 29 31 31
10 10 11 10 9 14 14 15 17 20 20 27 23 24 25 25 24 25 26 27 27 28 28 28 28 30 31
9 11 11 11 11 13 15 17 20 20 17 22 22 24 27 26 25 27 27 26 26 25 25 25 27 29 30
10 13 14 13 13 14 16 14 16 17 18 18 15 20 24 30 22 18 19 21 25 27 27 27 28 28 30
10 10 11 12 11 13 15 14 13 11 2 6 12 14 8 17 16 24 32 24 26 27 29 27 28 29 29
9 9 9 9 9 10 12 14 15 19 19 18 11 15 13 19 25 25 30 30 28 29 29 30 28 25 27
9 9 8 9 11 12 14 18 20 25 26 22 18 21 22 25 23 27 26 30 30 31 27 27 26 25 26
8 9 10 13 17 19 16 17 20 22 24 24 27 29 27 27 28 35 31 32 34 28 23 23 26 26 26
10 12 14 14 15 15 16 16 19 20 20 21 25 30 30 29 29 33 33 22 33 34 32 31 31 30 30
11 12 13 14 15 15 16 16 17 20 22 21 21 24 28 31 30 34 33 31 31 33 31 32 33 34 33
11 12 13 14 16 17 17 18 19 21 23 24 23 23 24 26 29 36 32 30 29 28 29 28 31 29 29
13 15 16 17 18 18 18 19 21 22 23 24 24 22 11 12 25 21 31 29 32 31 30 29 30 33 31

GFSFLT2_925_spd_036.txt.gz
Wind_Speed
14 19 22 21 20 21 22 24 22 19 17 18 17 18 19 20 21 22 21 21 22 22 22 22 22 23 23
13 18 18 15 17 18 18 16 17 19 17 15 16 18 20 20 21 21 21 21 21 21 21 21 22 24 24
7 10 9 10 12 12 15 14 11 10 12 13 16 20 21 20 19 20 20 21 22 23 23 23 23 24 25
6 7 8 7 8 12 12 9 9 13 15 16 20 18 18 17 18 19 20 20 20 21 21 22 23 24 25
6 4 4 6 9 5 10 8 10 16 20 19 16 19 21 21 21 22 19 19 20 20 21 23 25 26 27
3 3 5 3 8 5 4 9 5 10 11 28 23 24 23 23 21 19 20 20 20 22 23 25 26 28 28
4 3 4 4 6 10 13 14 16 21 20 26 21 25 24 25 22 21 20 20 22 23 24 25 25 26 27
5 6 7 8 9 10 12 14 17 21 17 15 17 27 23 22 24 21 18 16 17 20 22 23 24 25 26
6 8 10 10 10 11 14 14 13 12 20 18 11 17 26 25 11 11 14 18 24 23 22 23 24 26 27
9 10 11 11 10 11 13 14 14 9 2 10 11 15 10 12 12 26 26 28 23 23 25 25 25 26 26
10 10 9 9 10 9 10 11 13 17 18 14 9 16 10 14 24 22 29 26 30 31 28 24 23 21 24
8 9 10 10 12 14 15 18 21 25 27 23 17 19 20 23 20 27 29 32 29 32 30 25 24 24 23
9 10 10 12 15 17 15 15 18 19 20 22 24 27 24 24 27 34 29 33 32 24 25 29 33 32 32
11 12 14 15 15 15 16 17 19 20 16 18 22 24 27 27 28 32 31 22 33 33 31 33 33 32 32
12 14 13 14 15 15 17 19 17 19 21 19 18 21 27 31 30 31 32 30 30 33 30 32 33 33 31
14 16 17 18 18 19 17 17 19 19 20 20 21 22 22 26 27 34 31 30 32 30 28 26 29 30 30
16 18 18 19 19 20 20 18 19 20 21 20 20 18 10 12 26 22 30 27 29 32 29 29 30 35 33

GFSFLT2_925_spd_042.txt.gz
Wind_Speed
17 16 19 22 21 23 23 21 22 21 18 19 19 20 18 18 18 18 19 17 17 18 18 18 19 18 19
8 12 13 17 21 19 18 19 19 18 17 19 16 16 18 16 16 16 18 18 17 17 17 17 18 18 19
2 5 9 12 16 15 15 16 14 15 12 15 13 12 14 15 17 16 15 15 15 15 15 17 17 18 19
1 0 2 5 8 7 6 6 10 9 9 9 11 13 16 17 16 15 16 16 16 16 17 16 16 17 18
2 1 2 2 1 2 5 6 7 8 10 13 16 15 18 18 17 15 15 14 15 14 15 17 17 18 20
2 2 2 1 2 2 3 2 2 3 7 16 20 21 14 15 14 14 13 13 15 15 16 17 18 18 20
2 2 2 1 1 2 4 5 7 12 13 17 17 19 11 12 12 12 12 13 14 15 14 14 16 18 20
3 3 4 5 7 8 8 10 11 15 11 7 9 16 13 18 17 16 15 11 9 11 15 17 18 18 20
1 3 5 7 8 9 10 9 7 3 5 10 7 15 23 12 1 5 6 8 14 16 16 17 18 19 22
10 11 11 10 9 10 11 9 6 5 1 3 5 10 10 7 5 7 15 15 14 18 18 20 19 20 22
9 6 5 5 5 4 6 7 8 11 11 10 5 8 8 11 18 19 21 15 23 26 21 18 17 17 20
6 5 4 4 6 8 9 11 13 16 16 14 14 14 15 16 16 16 25 28 27 23 24 19 20 20 22
7 8 8 9 11 12 12 11 14 16 17 16 19 23 22 20 20 25 24 18 31 22 17 25 29 28 30
7 9 10 10 11 11 14 16 18 18 14 11 12 18 22 24 23 27 27 15 23 27 26 31 32 31 29
8 9 9 10 15 14 15 16 17 18 22 21 17 14 19 24 24 26 29 29 28 30 28 32 30 28 30
9 10 13 16 19 17 16 17 18 21 23 25 23 20 17 22 26 31 28 27 29 31 30 27 32 28 30
17 18 18 19 18 23 22 18 18 20 24 24 22 18 8 9 18 20 29 29 26 27 27 26 30 34 34

GFSFLT2_925_spd_045.txt.gz
Wind_Speed
7 9 10 10 16 17 21 24 21 19 16 15 14 15 17 17 16 16 16 17 17 17 18 19 19 19 18
5 4 6 9 15 14 17 17 17 17 19 18 18 17 17 15 15 16 15 15 17 18 18 17 18 18 18
2 3 3 6 9 11 13 14 14 13 12 13 14 13 12 12 12 14 16 18 17 16 15 16 17 17 17
3 2 2 1 4 6 7 7 8 7 6 9 9 12 10 12 14 16 17 17 17 17 17 17 17 16 16
4 3 3 2 1 1 2 3 4 6 8 10 12 15 18 19 20 20 17 16 16 16 15 15 16 17 17
2 1 0 0 1 1 2 1 3 3 6 13 15 20 20 17 15 15 15 16 15 15 15 16 16 17 18
1 1 1 1 0 1 3 4 6 11 12 16 14 16 10 9 10 12 15 16 15 15 14 14 15 16 17
3 3 3 3 5 6 6 8 9 12 10 6 9 15 13 11 17 20 19 16 15 12 11 14 16 17 19
2 3 3 4 5 7 7 9 8 4 5 8 7 15 20 11 3 1 3 7 9 12 13 13 16 18 22
9 9 9 8 7 8 8 8 6 5 2 3 4 8 8 5 4 5 9 11 15 18 15 18 19 20 23
10 7 5 4 2 2 4 5 7 10 9 8 5 6 7 10 19 19 19 23 17 24 22 20 18 17 21
6 6 6 6 6 8 9 11 12 15 15 14 11 11 11 16 14 14 22 28 29 27 21 24 17 17 19
7 7 8 9 10 11 12 11 13 16 17 17 18 19 20 19 23 24 22 15 23 30 18 19 26 24 26
9 10 11 10 9 8 14 14 18 19 12 12 11 13 20 24 23 28 28 17 21 27 29 30 30 30 29
9 9 9 10 11 16 15 15 17 20 24 21 16 16 19 24 25 28 30 28 29 33 29 29 31 31 31
10 11 12 15 21 21 17 18 20 21 23 25 23 21 15 17 23 30 26 25 26 26 28 25 30 33 29
14 16 18 18 18 21 22 20 18 20 24 25 23 19 7 8 17 20 28 28 28 30 29 27 30 38 32

GFSFLT2_925_spd_048.txt.gz
Wind_Speed
6 11 9 7 7 4 4 8 10 9 8 8 11 14 16 17 16 16 15 14 14 15 14 13 14 15 15
6 8 7 5 7 5 7 11 14 13 17 20 23 20 20 18 17 16 13 13 12 13 14 15 15 14 15
3 5 4 4 4 4 7 10 12 14 15 13 13 14 15 14 14 13 9 10 12 13 14 14 14 13 14
2 3 3 4 3 2 2 4 5 6 7 7 8 9 10 10 11 13 13 14 14 15 16 15 15 14 14
3 3 3 4 4 4 2 3 3 5 6 7 9 13 15 18 20 20 19 17 15 15 15 14 13 13 13
4 4 4 4 4 4 4 3 3 1 6 12 14 19 19 19 17 15 13 13 14 14 14 13 14 13 14
4 4 4 3 3 4 5 5 6 11 13 13 10 11 6 8 9 10 11 12 14 14 13 12 13 13 14
5 4 4 4 5 6 6 7 10 11 7 5 8 15 10 12 13 15 17 16 14 12 12 11 11 13 16
4 5 5 5 6 8 7 8 7 3 5 5 6 14 18 9 4 1 1 3 8 9 10 12 13 14 18
8 7 7 6 6 7 7 8 6 4 2 4 6 9 8 5 1 7 10 11 13 13 13 16 16 18 23
7 5 3 3 2 3 4 5 6 7 9 6 6 8 6 10 15 19 15 12 15 21 23 23 23 17 19
5 5 4 4 5 6 8 10 12 15 14 14 10 10 13 16 12 15 24 26 20 20 20 19 19 20 14
6 7 8 9 9 8 8 9 11 14 16 15 18 19 19 16 18 21 21 16 28 23 15 15 18 24 26
7 9 10 9 8 7 13 16 17 16 11 10 10 13 20 23 24 26 26 16 23 30 30 29 28 27 26
9 9 8 9 10 12 19 16 13 15 23 22 15 14 19 25 26 27 31 29 32 32 26 25 24 27 27
11 12 14 16 20 22 18 17 19 22 25 24 22 19 17 22 21 28 26 26 27 26 26 24 27 32 31
15 16 17 19 19 20 21 21 23 23 26 24 21 17 4 6 14 17 27 27 28 27 27 29 30 38 32

GFSFLT2_925_spd_051.txt.gz
Wind_Speed
4 7 7 7 8 8 7 3 3 8 5 2 7 14 13 11 11 12 14 14 14 12 11 12 11 11 12
3 6 4 6 6 6 5 5 7 7 7 7 7 10 13 17 17 15 16 17 17 15 12 11 13 14 14
1 4 3 7 6 5 6 6 5 9 13 15 13 10 9 10 11 12 13 13 16 13 11 12 13 14 14
1 2 3 4 5 5 6 7 7 6 5 6 6 6 9 10 9 10 10 10 11 13 14 15 15 16 15
1 1 2 3 4 4 3 4 5 6 7 7 7 9 11 13 15 16 17 19 18 17 15 15 14 15 14
1 1 2 2 3 3 4 4 3 3 8 11 13 14 15 16 17 18 18 17 15 14 14 14 14 15 14
1 1 1 2 2 4 4 3 4 8 10 9 7 7 6 9 9 10 10 11 13 15 15 15 15 14 14
3 2 2 3 4 5 5 6 8 6 4 4 6 8 9 11 12 11 11 14 15 14 14 14 15 15 14
4 5 5 6 6 7 5 4 5 2 4 3 4 11 8 3 1 2 4 4 5 10 14 14 13 13 15
5 4 4 3 4 4 5 3 3 3 2 4 5 7 7 4 3 13 11 10 10 11 12 12 11 12 15
4 2 1 1 1 2 3 3 4 5 7 4 5 8 4 8 12 12 12 6 14 14 18 21 21 18 18
2 1 2 3 5 6 6 7 9 12 13 13 8 8 8 12 12 7 12 16 15 12 13 17 19 19 18
3 3 4 7 8 8 8 8 12 13 13 13 15 16 15 13 16 16 15 10 17 13 10 15 17 17 19
5 6 6 5 5 5 7 11 14 11 7 9 9 13 16 16 19 23 19 13 16 17 18 18 17 17 19
7 7 6 6 7 7 13 14 10 13 14 12 12 14 20 24 21 24 25 23 22 21 16 18 18 19 20
9 10 11 11 13 14 14 12 14 16 17 15 12 12 12 18 20 26 17 19 18 16 15 18 26 23 21
11 12 14 15 14 13 13 13 15 16 17 16 13 10 8 9 14 19 21 18 19 20 19 21 26 32 24

GFSFLT2_925_spd_057.txt.gz
Wind_Speed
5 7 5 7 7 8 7 6 6 6 5 5 6 5 3 1 1 2 5 7 8 8 12 10 10 9 11
2 4 4 7 7 8 8 5 5 8 8 9 8 7 6 6 6 7 8 8 9 9 9 11 12 13 9
1 4 3 7 8 8 9 10 8 8 7 5 8 10 9 8 5 6 9 10 10 13 13 12 12 12 10
2 2 2 5 6 7 7 7 7 6 7 10 8 8 7 5 6 7 7 7 7 8 8 9 11 10 10
3 3 5 4 4 5 8 9 7 8 8 5 9 8 6 9 7 7 9 10 12 12 11 11 11 12 13
4 5 3 4 5 5 7 8 4 7 12 12 8 8 7 7 10 12 13 13 14 13 13 13 13 13 12
5 4 5 3 5 6 5 7 9 11 11 7 7 8 7 7 10 12 10 9 8 8 9 10 10 10 10
1 2 2 3 5 6 7 9 10 5 7 4 8 9 9 9 10 11 6 6 7 9 10 10 10 11 12
5 6 8 8 8 6 6 7 7 1 3 4 7 15 10 8 7 9 3 11 10 9 9 8 11 12 14
3 6 5 5 5 4 5 4 5 6 2 5 8 9 7 3 4 8 11 9 10 9 9 10 11 13 17
4 4 4 4 3 4 5 6 5 7 7 4 4 7 5 8 12 8 10 9 11 13 13 11 12 13 15
5 6 6 6 6 8 9 9 10 13 13 12 7 6 7 9 8 8 11 13 17 15 13 15 13 14 17
7 7 8 9 11 12 9 9 10 10 12 12 15 13 12 11 13 15 15 8 19 16 12 14 15 15 18
8 8 8 9 8 6 8 8 10 13 11 12 13 14 18 20 20 25 21 13 15 21 20 22 21 22 24
9 9 9 9 10 9 10 11 12 13 13 13 14 15 19 21 22 25 27 22 22 23 19 19 20 22 21
10 10 10 10 11 11 12 14 15 14 15 13 12 14 17 22 26 31 25 22 20 17 18 19 22 23 22
13 13 13 13 12 14 14 14 16 17 17 15 13 14 11 10 15 16 27 23 22 21 21 23 25 30 24

GFSFLT2_925_spd_060.txt.gz
Wind_Speed
2 2 2 5 6 5 5 4 3 6 4 5 5 5 5 4 2 2 0 1 3 5 5 5 7 9 9
1 3 7 6 5 7 8 8 6 6 6 5 6 6 6 6 6 5 5 6 6 7 7 7 9 8 6
1 3 5 8 9 8 7 10 8 7 7 6 8 7 5 4 2 2 5 7 8 8 9 11 10 9 8
1 2 1 6 6 6 9 8 8 7 7 6 8 6 6 5 4 4 4 4 6 7 7 8 8 9 10
2 1 2 1 2 3 5 8 4 6 10 5 6 9 5 4 5 6 6 7 8 9 10 10 9 9 9
3 4 3 4 3 3 5 7 4 6 16 14 4 7 4 6 8 10 10 8 8 10 11 11 11 12 11
3 3 3 2 2 3 2 2 4 10 11 5 4 8 4 4 8 10 11 7 6 6 6 6 7 8 9
3 3 2 2 2 2 3 5 7 4 4 3 7 10 11 5 5 9 7 3 4 5 5 6 8 8 9
3 3 5 5 5 5 1 4 2 3 2 5 5 14 9 3 4 6 5 8 9 8 8 7 6 8 12
2 3 3 2 2 1 2 2 2 2 2 6 7 8 6 1 3 6 8 7 8 8 7 9 9 10 14
2 3 3 2 1 1 2 5 5 5 4 4 4 6 4 8 12 7 5 8 11 12 14 14 10 10 15
3 4 4 3 5 7 7 7 9 11 12 13 8 8 6 8 8 8 15 16 15 15 14 15 16 14 12
5 5 6 8 9 10 12 10 8 8 9 10 12 13 11 11 13 15 17 17 21 4 14 20 18 17 19
8 7 8 10 9 5 5 6 9 11 7 8 11 13 16 16 17 26 24 14 23 27 25 21 20 20 21
12 11 11 10 10 8 9 11 12 15 17 12 12 15 18 20 23 25 28 29 27 23 20 23 21 21 22
12 13 14 13 12 12 12 13 16 17 17 14 14 16 18 21 22 29 27 28 27 23 20 21 23 28 28
16 17 16 15 14 14 15 16 18 18 19 17 14 13 9 9 19 19 25 27 25 23 22 25 28 33 31

GFSFLT2_925_spd_063.txt.gz
Wind_Speed
6 4 2 4 3 4 2 1 1 5 2 3 5 5 6 7 6 5 4 4 4 4 4 3 4 6 9
6 5 3 7 2 4 4 5 4 5 5 2 3 3 3 4 4 3 2 2 2 2 0 2 5 7 6
6 6 2 3 3 4 4 4 3 2 4 3 5 4 2 2 2 3 2 2 4 4 5 6 8 8 8
5 4 2 2 0 1 1 1 0 1 3 2 1 2 3 2 2 2 3 3 2 3 4 6 8 6 7
4 3 3 3 2 1 2 3 2 2 4 6 4 3 1 1 3 5 5 5 6 8 9 9 10 10 8
5 6 4 5 3 2 2 2 2 3 9 2 3 3 3 2 3 5 5 5 5 7 9 9 10 10 11
7 5 6 4 3 3 2 2 3 4 6 1 2 3 1 2 4 5 7 3 3 3 4 5 6 7 8
3 4 3 2 3 3 2 3 4 0 3 1 4 5 6 1 1 4 3 4 4 4 4 5 5 7 7
3 4 4 4 6 6 5 3 1 1 2 3 4 9 4 4 2 1 2 4 5 6 6 6 7 6 9
4 4 3 2 3 3 5 4 3 2 0 4 3 7 3 2 2 6 7 3 5 4 5 7 9 10 11
4 3 3 3 3 3 3 4 6 6 2 2 2 2 3 4 7 4 1 4 10 11 12 12 8 9 13
5 4 6 6 6 6 6 6 6 8 8 8 5 5 6 4 6 4 11 14 9 14 12 8 12 12 11
7 6 6 7 8 8 10 11 7 4 6 7 8 9 10 9 10 14 15 11 15 2 15 23 19 15 17
9 7 7 9 9 8 6 4 7 5 3 5 7 10 14 16 17 20 18 13 19 24 19 18 17 15 17
9 10 10 10 10 8 9 8 10 11 13 10 8 10 15 18 21 23 25 26 25 22 20 21 22 20 18
12 12 13 13 12 10 11 12 14 15 16 13 10 12 14 15 18 25 21 21 24 22 21 21 28 27 24
15 15 15 15 14 15 14 14 16 17 17 14 12 10 5 5 12 15 23 22 21 23 21 22 26 34 30

GFSFLT2_925_spd_066.txt.gz
Wind_Speed
7 8 5 4 5 4 3 1 1 2 1 2 4 4 4 4 4 5 5 6 8 8 7 7 5 3 5
8 7 6 2 4 2 1 2 3 4 4 3 3 3 3 4 3 2 1 1 1 2 3 3 3 4 3
7 7 5 2 3 4 4 3 3 2 2 3 3 3 3 2 4 3 3 4 2 2 3 5 6 6 6
7 8 5 5 3 4 3 2 4 3 3 4 4 3 2 2 2 2 1 1 1 2 2 2 3 5 5
7 5 6 6 7 5 3 2 5 2 3 5 4 4 2 1 2 4 4 5 5 5 5 5 5 6 7
6 6 6 6 6 4 3 2 2 3 6 1 1 1 1 1 1 4 4 3 3 4 5 7 8 8 8
11 9 9 9 7 6 4 3 2 3 5 1 0 0 1 3 2 3 5 1 0 1 2 2 3 3 4
6 7 6 6 6 4 4 2 1 1 2 1 2 2 4 1 4 1 2 3 4 4 3 3 3 3 4
3 4 4 4 5 5 4 2 2 3 2 1 2 4 1 3 5 3 2 1 2 3 3 3 4 5 6
5 5 4 5 5 4 5 6 4 3 4 1 1 4 2 4 4 5 5 3 3 3 5 6 8 9 10
7 6 6 6 5 4 4 4 5 4 3 1 2 2 3 4 5 6 4 3 7 9 8 7 7 8 11
7 7 7 6 5 5 3 2 3 5 6 6 4 4 4 4 5 3 6 13 10 10 13 3 11 16 14
8 7 7 6 6 6 5 6 8 5 6 9 8 9 9 8 7 11 10 7 12 5 8 21 17 14 14
9 8 8 9 8 6 6 5 6 5 6 5 7 10 13 16 16 20 18 11 11 20 18 17 16 15 15
11 10 9 9 10 9 9 8 8 6 8 7 9 11 13 15 19 22 22 22 20 18 18 20 21 17 17
13 13 12 13 12 11 11 12 12 12 13 13 11 9 11 13 17 23 21 20 17 17 17 19 28 24 22
14 14 14 13 13 13 13 13 14 14 14 12 11 9 2 3 10 14 18 17 16 22 25 23 27 32 27

GFSFLT2_925_spd_069.txt.gz
Wind_Speed
7 11 12 9 4 4 5 5 3 2 2 3 3 4 3 4 4 5 3 3 7 14 15 14 10 11 9
8 12 9 7 4 3 4 3 4 3 2 3 3 4 5 2 2 3 1 1 2 4 3 4 7 8 8
7 9 6 7 4 5 6 5 5 3 3 2 1 2 3 3 3 3 2 1 0 1 1 1 1 3 4
8 6 5 6 6 7 7 5 5 4 5 4 3 2 1 1 2 3 2 2 2 2 2 1 2 1 3
5 5 6 6 8 7 7 6 5 5 4 5 5 3 2 2 1 2 3 3 2 2 3 3 3 3 3
6 5 6 5 6 7 5 3 2 5 2 3 1 2 3 2 1 3 3 2 1 1 3 5 6 6 6
10 10 9 8 8 7 6 5 3 3 1 4 3 3 2 2 1 1 4 3 3 2 2 1 1 1 2
7 7 6 6 7 5 6 5 3 3 2 3 3 2 2 3 5 1 3 4 4 4 3 2 3 2 2
4 5 4 4 5 6 6 6 3 4 3 2 2 1 2 5 7 4 4 1 1 2 2 2 2 5 4
5 5 5 5 5 6 7 7 3 3 5 2 2 1 2 5 6 5 5 4 4 4 4 6 6 8 9
5 5 5 6 6 5 5 4 5 2 4 2 2 1 1 1 4 7 6 6 6 7 9 7 7 7 11
6 6 6 8 7 5 4 3 3 3 4 5 2 3 2 2 3 3 4 8 12 9 11 10 8 12 14
8 8 8 8 8 8 6 5 6 6 6 10 9 8 7 6 3 6 8 3 14 12 7 11 17 16 16
11 9 9 10 10 9 6 7 7 7 7 6 6 7 10 13 15 18 16 10 4 9 19 21 16 15 15
14 12 12 11 12 10 9 8 8 3 5 5 8 10 12 13 16 19 19 19 17 14 13 19 19 15 15
16 15 15 14 12 13 13 13 14 13 12 10 10 10 9 11 15 21 20 19 12 8 11 16 28 22 20
19 18 17 15 14 16 16 15 15 16 15 12 11 8 0 2 8 13 16 13 11 15 19 19 26 29 24